TimeEDT,TemperatureF,Dew PointF,Humidity,Sea Level PressureIn,VisibilityMPH,Wind Direction,Wind SpeedMPH,Gust SpeedMPH,PrecipitationIn,Events,Conditions,WindDirDegrees,DateUTC
12:00 AM,64.4,60.8,88,29.78,25.0,SW,4.6,-,N/A,,Mostly Cloudy,230,2013-08-03 04:00:00
1:00 AM,62.6,60.8,94,29.78,25.0,SW,5.8,-,N/A,,Mostly Cloudy,220,2013-08-03 05:00:00
1:09 AM,62.6,60.8,94,29.78,15.0,WSW,4.6,-,N/A,Rain,Light Rain Showers,240,2013-08-03 05:09:00
1:49 AM,62.6,60.8,94,29.76,15.0,SW,4.6,-,N/A,Rain-Thunderstorm,Light Thunderstorms and Rain,230,2013-08-03 05:49:00
2:00 AM,62.6,60.8,94,29.76,10.0,West,3.5,-,N/A,,Overcast,260,2013-08-03 06:00:00
2:26 AM,62.6,60.8,94,29.76,15.0,WSW,5.8,-,N/A,Rain,Light Rain Showers,240,2013-08-03 06:26:00
3:00 AM,62.6,60.8,94,29.75,15.0,WSW,4.6,-,N/A,Rain,Light Rain Showers,240,2013-08-03 07:00:00
4:00 AM,62.6,60.8,94,29.75,25.0,SW,6.9,-,N/A,Rain,Light Rain Showers,220,2013-08-03 08:00:00
4:43 AM,60.8,59.0,94,29.76,25.0,SW,8.1,-,N/A,,Overcast,220,2013-08-03 08:43:00
5:00 AM,60.8,59.0,94,29.76,25.0,SW,11.5,-,N/A,,Overcast,220,2013-08-03 09:00:00
6:00 AM,59.0,57.2,94,29.78,25.0,SW,5.8,-,N/A,,Mostly Cloudy,230,2013-08-03 10:00:00
7:00 AM,59.0,57.2,94,29.78,25.0,WSW,3.5,-,N/A,,Partly Cloudy,250,2013-08-03 11:00:00
7:42 AM,60.8,59.0,94,29.78,25.0,West,6.9,-,N/A,,Mostly Cloudy,260,2013-08-03 11:42:00
8:00 AM,60.8,59.0,94,29.79,25.0,West,8.1,-,N/A,,Mostly Cloudy,280,2013-08-03 12:00:00
9:00 AM,62.6,59.0,88,29.78,45.0,WSW,8.1,-,N/A,,Mostly Cloudy,240,2013-08-03 13:00:00
10:00 AM,64.4,59.0,83,29.79,25.0,SW,8.1,-,N/A,,Mostly Cloudy,230,2013-08-03 14:00:00
11:00 AM,66.2,60.8,83,29.79,25.0,SW,8.1,-,N/A,,Mostly Cloudy,220,2013-08-03 15:00:00
11:39 AM,66.2,60.8,83,29.78,35.0,WSW,5.8,-,N/A,Rain,Light Rain Showers,240,2013-08-03 15:39:00
12:00 PM,68.0,62.6,83,29.77,35.0,SW,8.1,-,N/A,,Mostly Cloudy,230,2013-08-03 16:00:00
1:00 PM,69.8,59.0,68,29.77,45.0,West,4.6,-,N/A,,Scattered Clouds,270,2013-08-03 17:00:00
1:33 PM,69.8,59.0,68,29.77,45.0,WSW,9.2,-,N/A,,Mostly Cloudy,240,2013-08-03 17:33:00
1:43 PM,69.8,59.0,68,29.77,45.0,WSW,11.5,-,N/A,Rain,Light Rain Showers,250,2013-08-03 17:43:00
2:00 PM,66.2,59.0,78,29.78,25.0,WSW,10.4,17.3,N/A,Rain,Light Rain Showers,250,2013-08-03 18:00:00
3:00 PM,68.0,60.8,78,29.79,25.0,WSW,6.9,-,N/A,,Mostly Cloudy,250,2013-08-03 19:00:00
4:00 PM,64.4,59.0,83,29.79,25.0,West,4.6,-,N/A,Rain,Light Rain Showers,260,2013-08-03 20:00:00
5:00 PM,69.8,60.8,73,29.79,35.0,West,8.1,-,N/A,,Mostly Cloudy,260,2013-08-03 21:00:00
5:43 PM,68.0,59.0,73,29.79,35.0,West,6.9,-,N/A,,Mostly Cloudy,270,2013-08-03 21:43:00
6:00 PM,68.0,60.8,78,29.79,35.0,West,4.6,-,N/A,,Mostly Cloudy,270,2013-08-03 22:00:00
7:00 PM,68.0,59.0,73,29.80,35.0,WSW,5.8,-,N/A,,Mostly Cloudy,250,2013-08-03 23:00:00
7:46 PM,66.2,55.4,68,29.82,20.0,NW,11.5,17.3,N/A,Rain,Light Rain Showers,320,2013-08-03 23:46:00
8:00 PM,62.6,55.4,77,29.83,20.0,WNW,6.9,-,N/A,Rain,Light Rain Showers,300,2013-08-04 00:00:00
9:00 PM,60.8,59.0,94,29.83,20.0,Variable,2.3,-,N/A,Rain,Light Rain Showers,0,2013-08-04 01:00:00
10:00 PM,60.8,57.2,88,29.83,25.0,WSW,3.5,-,N/A,Rain,Light Rain Showers,240,2013-08-04 02:00:00
11:00 PM,60.8,57.2,88,29.83,25.0,SW,2.3,-,N/A,Rain,Light Rain Showers,220,2013-08-04 03:00:00